Vertical_Velocity
0 -1 -1 -3 -0 -3 0 -2 2 -5 -1 1 8 12 4 0 -4 4 1 -0 1 1 -1 -1 1 2 2 -3 2 3 2 6 2 -9 3 -6 1 -2 -5 -2 -0 -1 -2
-4 -3 -4 -2 -1 -3 -4 -0 -3 -1 -4 -4 2 1 0 -8 -9 -7 -2 -2 -1 1 -2 -0 0 1 -2 -2 -4 0 2 -1 3 14 -8 -1 -1 -7 1 -0 -1 -4 -3
-3 -3 -4 -0 -1 -2 -4 -1 3 1 -1 -0 17 -5 -1 2 3 -3 -3 -1 1 -3 -3 -1 -0 2 -2 -4 -5 -3 -1 0 1 -8 4 1 -3 -5 -6 -1 2 -4 -2
-1 -2 -1 -0 -3 -2 -2 0 5 -0 2 0 5 -9 -1 0 2 2 -4 -2 1 0 -2 -2 -2 -1 -0 -0 1 -3 -1 -2 1 -2 -3 -4 2 -0 -5 -9 -1 -3 -5
-3 -2 -2 -2 0 -2 -3 -4 3 -0 3 0 11 7 -2 -3 -2 -1 -3 -1 2 -1 1 0 -1 -2 0 -4 -2 -1 -3 0 -1 -4 -2 -3 -1 1 -8 -2 -6 -3 3
0 -2 -1 -1 -0 5 7 -0 11 -0 0 1 -1 1 -3 -2 -2 -5 0 3 -1 -1 -3 6 -1 1 -0 -3 -1 0 -1 -4 -0 -3 -0 -2 -4 -2 -5 -2 -0 -6 2
1 -2 -2 0 1 -2 2 2 1 -3 -4 -1 -5 1 -2 -0 -1 -0 -2 5 2 1 -1 -4 5 4 5 1 0 -4 1 -3 -2 -2 4 1 3 -2 -0 -1 1 -8 3
1 -1 -0 0 -1 1 -1 1 2 4 5 -0 -0 1 -3 -4 -0 1 -2 1 -1 -2 -1 -0 6 7 15 0 -3 -2 -4 -6 1 0 -2 -0 -0 2 -1 -1 1 1 4
2 3 3 -1 2 2 9 -1 2 1 2 -2 -1 -1 -0 1 3 -2 -1 0 -2 -3 1 -2 3 1 7 5 -9 -0 4 -3 -7 6 -9 -7 -3 -0 -2 2 4 -8 5
0 -0 -1 -2 -2 -4 5 -3 -3 2 2 1 2 1 1 -1 8 0 -5 -2 -1 -1 -0 -0 -0 10 8 12 0 0 -1 -0 0 -4 -11 1 3 3 1 -5 -2 -2 -4
-0 -2 -1 -2 3 3 0 -1 -3 2 1 2 1 0 3 3 3 3 -1 -0 -0 -3 -4 6 3 2 2 3 -1 -2 -2 -2 -0 -2 -1 -2 -1 -4 -2 -5 -3 -6 -2
1 -4 -4 -2 2 4 -2 2 -3 1 3 -1 1 -0 1 2 3 1 3 -0 -0 -4 -1 -3 -8 4 6 -1 -1 -1 1 -2 -3 -0 -2 -4 2 1 -4 -4 -1 -5 -4
-1 -2 -0 -4 -5 -3 2 3 -2 0 3 4 4 1 1 -1 -0 1 4 2 3 3 -1 0 2 1 -3 -2 1 1 1 -1 -0 0 0 0 -2 -1 0 -2 1 -2 -1
4 -3 4 -4 1 -3 3 -1 -4 -4 -2 1 2 1 0 -1 -0 -3 0 -2 2 -3 -1 5 -3 -3 2 -1 3 4 -2 0 -2 -0 -1 -1 -2 -2 -0 -5 2 1 0
5 -8 2 1 2 1 0 2 5 3 3 -0 4 -1 0 5 -4 -1 -2 -1 0 2 4 -2 0 -2 -3 3 -3 -4 -3 1 0 -0 2 -4 -3 -1 -2 -4 -1 -1 -1
6 -6 4 -0 0 -2 1 1 2 -2 0 1 -2 -0 -4 -0 3 2 6 6 5 1 -2 -0 -1 0 -1 -1 -0 -5 -3 1 -0 3 -0 -1 0 -2 -0 -3 -1 -3 2
-5 0 3 1 -3 0 1 0 -0 -3 -3 0 -3 -1 1 1 -1 -1 1 0 2 2 -1 -1 1 -3 -2 -1 -2 0 0 2 1 0 0 1 -0 -3 0 -1 -1 -2 0
1 0 -1 -2 -1 0 1 -2 -4 -0 -1 3 6 0 3 1 0 2 -1 -0 1 3 -4 -1 1 2 1 0 -0 1 -1 -1 1 -0 1 -0 -2 -2 -1 -2 -1 -0 -1
5 4 1 -1 2 4 1 -0 -0 1 0 3 -2 -3 -2 3 -1 -1 0 -0 -1 -0 0 -1 -2 -2 1 0 -1 -0 -1 0 -1 -0 1 -1 -1 -2 -1 -0 -1 -0 -1
-0 1 1 -1 1 1 -3 -1 -1 0 -3 -4 -3 -2 -1 -0 -2 0 0 1 -0 -2 -2 -2 -1 -1 1 -2 -0 -1 -2 -0 -1 0 -0 -2 -1 -3 -1 -1 -3 -1 -3
-3 4 1 0 -2 -4 -0 0 -0 -1 -2 -2 -2 -1 1 -2 2 3 4 1 -2 -1 -1 -1 1 -1 -1 -1 0 -1 -0 -1 -1 -0 -1 -1 -1 -2 1 -1 -1 -2 -2
-2 2 -1 -3 0 -1 2 0 0 -2 -2 -4 -4 1 2 1 -0 -1 -0 2 2 -1 1 1 -0 -0 -2 -1 -1 -0 -1 0 0 -0 0 -1 -1 -1 0 0 -1 -2 -3
-3 -1 1 -0 -1 -0 -2 -3 -4 -3 -3 -2 -2 2 -3 -3 -3 1 1 -1 -1 -1 -1 -0 -2 -1 -0 0 -1 -1 -1 1 0 -0 -1 -1 -1 -1 -1 1 -1 -3 -3
-1 -2 -1 -0 -1 -2 -2 -3 -3 -4 -2 0 -2 -0 -1 1 2 2 -0 -0 -2 -1 -1 -3 -2 -2 -1 -0 -1 -2 -2 -1 -0 -1 -1 -1 -2 -0 -1 -2 -1 -3 -1
-1 -1 -1 -2 -1 -2 -1 -2 -3 -4 -0 1 -1 1 -1 -2 -1 -2 -2 -1 -2 -4 -3 -1 -1 -2 -1 -0 -2 -1 -1 -0 -1 -1 -0 0 -1 -1 0 -1 -1 -3 -2
-2 -1 -2 -2 -2 -1 -1 -1 -1 0 -1 -0 -0 -1 -1 1 0 -2 -0 -0 -1 -1 -3 -4 -4 -2 -1 -1 -2 -1 -1 -1 -1 -0 -1 0 -1 -2 -0 -0 -2 -1 -4
Height
5897 5897 5895 5896 5895 5894 5893 5891 5891 5891 5884 5880 5875 5869 5867 5866 5868 5866 5864 5862 5860 5858 5856 5853 5851 5849 5846 5845 5843 5840 5839 5839 5839 5835 5831 5828 5824 5817 5815 5812 5808 5804 5801
5892 5892 5892 5892 5891 5889 5889 5887 5885 5882 5876 5871 5864 5862 5856 5857 5858 5857 5853 5853 5851 5849 5846 5844 5840 5840 5837 5834 5832 5830 5829 5827 5825 5827 5823 5816 5811 5807 5801 5796 5792 5789 5788
5887 5887 5888 5887 5885 5884 5883 5881 5879 5874 5872 5866 5860 5857 5857 5851 5847 5848 5847 5845 5843 5841 5838 5835 5831 5831 5828 5825 5824 5821 5819 5815 5812 5811 5809 5803 5800 5795 5789 5783 5779 5775 5772
5882 5882 5882 5881 5878 5877 5877 5875 5873 5869 5865 5861 5858 5854 5850 5845 5843 5841 5839 5836 5834 5831 5830 5828 5823 5820 5819 5816 5814 5812 5809 5805 5803 5799 5795 5790 5783 5780 5775 5772 5767 5763 5759
5877 5877 5877 5875 5873 5872 5871 5869 5866 5864 5861 5856 5852 5848 5845 5841 5837 5832 5830 5829 5826 5824 5819 5817 5814 5812 5809 5807 5804 5802 5800 5797 5793 5788 5782 5777 5771 5765 5761 5757 5754 5751 5746
5872 5872 5872 5870 5868 5866 5864 5862 5857 5855 5854 5849 5845 5841 5837 5834 5832 5826 5823 5820 5817 5813 5810 5807 5805 5803 5800 5797 5796 5794 5790 5786 5781 5776 5771 5764 5759 5753 5749 5745 5742 5739 5736
5866 5866 5865 5864 5862 5859 5857 5855 5852 5848 5843 5840 5836 5832 5829 5827 5824 5819 5817 5813 5809 5803 5799 5796 5795 5793 5790 5788 5785 5781 5776 5771 5767 5764 5759 5752 5747 5741 5736 5733 5730 5726 5723
5861 5861 5858 5858 5856 5853 5849 5846 5842 5838 5834 5830 5827 5823 5821 5816 5815 5811 5808 5805 5800 5795 5791 5787 5785 5783 5779 5775 5773 5769 5765 5761 5756 5751 5746 5741 5735 5730 5723 5720 5718 5714 5711
5852 5851 5849 5847 5845 5842 5838 5833 5832 5828 5824 5822 5819 5815 5812 5808 5805 5803 5799 5795 5790 5786 5782 5779 5776 5773 5769 5766 5762 5758 5754 5749 5744 5740 5734 5729 5723 5718 5712 5709 5705 5702 5699
5842 5840 5838 5836 5834 5831 5827 5824 5822 5818 5816 5813 5810 5806 5803 5799 5795 5792 5788 5784 5779 5775 5771 5768 5765 5762 5759 5754 5750 5746 5743 5738 5732 5727 5722 5717 5713 5707 5701 5696 5693 5690 5686
5830 5829 5827 5824 5823 5823 5819 5817 5811 5808 5806 5803 5800 5795 5792 5788 5785 5782 5776 5770 5767 5764 5760 5757 5754 5752 5747 5743 5739 5734 5731 5726 5720 5716 5710 5706 5701 5696 5691 5686 5681 5677 5675
5819 5817 5815 5814 5813 5810 5808 5805 5801 5797 5794 5790 5787 5783 5780 5777 5774 5772 5767 5761 5756 5753 5750 5746 5742 5737 5734 5730 5725 5722 5718 5714 5709 5704 5700 5695 5691 5685 5681 5677 5673 5668 5664
5808 5806 5804 5804 5802 5797 5792 5788 5786 5785 5781 5777 5773 5770 5767 5764 5761 5757 5754 5750 5746 5742 5737 5733 5728 5724 5720 5716 5713 5710 5706 5701 5697 5693 5690 5686 5682 5676 5673 5670 5666 5661 5656
5796 5794 5791 5789 5789 5782 5778 5775 5773 5772 5769 5765 5761 5758 5755 5750 5746 5743 5742 5738 5734 5730 5724 5720 5715 5710 5706 5703 5702 5698 5694 5690 5687 5683 5680 5676 5672 5668 5665 5661 5658 5653 5649
5784 5782 5779 5776 5774 5769 5766 5763 5762 5760 5756 5752 5749 5746 5742 5740 5736 5733 5730 5726 5722 5717 5712 5707 5702 5699 5696 5693 5690 5686 5683 5679 5677 5673 5670 5667 5663 5660 5656 5653 5650 5646 5641
5770 5767 5766 5763 5760 5755 5753 5752 5749 5746 5742 5739 5737 5734 5730 5728 5724 5720 5716 5713 5709 5703 5698 5694 5691 5688 5685 5683 5680 5676 5673 5670 5667 5664 5662 5659 5655 5652 5649 5645 5642 5639 5634
5758 5755 5753 5749 5746 5745 5743 5741 5737 5733 5731 5728 5724 5721 5718 5714 5710 5708 5705 5701 5695 5690 5687 5684 5682 5679 5676 5672 5669 5666 5663 5661 5658 5656 5654 5651 5647 5644 5641 5638 5636 5633 5628
5744 5741 5739 5737 5733 5732 5730 5726 5723 5720 5717 5714 5711 5709 5705 5701 5699 5696 5692 5688 5685 5682 5678 5675 5672 5669 5666 5662 5659 5656 5654 5652 5649 5647 5645 5642 5639 5637 5634 5631 5629 5627 5622
5729 5727 5726 5723 5722 5720 5718 5714 5711 5708 5706 5703 5699 5697 5694 5691 5687 5684 5681 5678 5675 5673 5669 5665 5662 5659 5656 5653 5649 5647 5645 5643 5640 5638 5637 5635 5632 5630 5628 5625 5623 5621 5617
5717 5715 5714 5712 5709 5707 5704 5701 5698 5695 5693 5691 5688 5686 5682 5680 5677 5674 5671 5668 5666 5662 5659 5655 5651 5649 5646 5643 5641 5639 5637 5635 5633 5631 5629 5628 5626 5623 5622 5620 5618 5615 5612
5704 5703 5701 5699 5696 5694 5691 5688 5686 5684 5681 5679 5676 5674 5671 5669 5667 5664 5661 5659 5656 5653 5649 5646 5643 5641 5638 5635 5633 5632 5630 5628 5626 5624 5623 5622 5620 5618 5616 5615 5613 5611 5608
5692 5690 5688 5686 5685 5682 5679 5676 5674 5672 5670 5668 5665 5663 5662 5661 5658 5656 5653 5650 5648 5645 5641 5638 5635 5632 5630 5628 5626 5625 5623 5621 5619 5618 5617 5616 5614 5613 5611 5610 5609 5607 5604
5680 5679 5677 5676 5674 5672 5670 5667 5664 5662 5660 5659 5657 5656 5654 5652 5650 5648 5645 5642 5640 5638 5634 5631 5628 5626 5623 5621 5619 5618 5616 5615 5613 5612 5610 5609 5608 5607 5606 5604 5603 5602 5599
5669 5668 5668 5667 5666 5664 5661 5659 5656 5654 5653 5652 5650 5648 5647 5645 5643 5641 5639 5637 5635 5632 5628 5625 5623 5620 5617 5615 5613 5611 5610 5608 5607 5605 5603 5602 5601 5600 5599 5598 5597 5596 5595
5661 5660 5659 5658 5657 5655 5652 5650 5648 5647 5646 5645 5643 5642 5640 5638 5637 5635 5634 5632 5629 5627 5624 5621 5618 5614 5611 5609 5607 5605 5603 5601 5599 5598 5596 5595 5594 5593 5591 5591 5590 5590 5590
5652 5650 5649 5648 5647 5645 5644 5642 5640 5639 5638 5637 5636 5635 5634 5633 5632 5630 5628 5626 5624 5622 5619 5616 5613 5609 5606 5603 5601 5599 5597 5595 5593 5592 5591 5589 5588 5587 5586 5585 5584 5584 5584